AFR6118 LFBO-LFPO

Flight info

Callsign AFR6118
Flight time N/A
Altitude 34000
Route FISTO DCT PERIG DCT DIBAG DCT TUDRA/N0381F280 DCT BEVOL UT158 AMB
Aircraft A320/M-SDE3FGHIRWY/LB1

Departure

Time 2026-05-04 21:27
Airport Toulouse-Blagnac Airport (LFBO)

Arrival

Time N/A
Airport Paris-Orly Airport (LFPO)
Time Latitude Longitude Altitude Speed Heading
2026-05-04 20:58 43.62881 1.37484 485 ft 0 kts 34°
2026-05-04 21:04 43.62880 1.37484 494 ft 0 kts 34°
2026-05-04 21:16 43.62872 1.37476 483 ft 4 kts 33°
2026-05-04 21:16 43.62849 1.37456 486 ft 4 kts 34°
2026-05-04 21:16 43.62828 1.37432 486 ft 4 kts 42°
2026-05-04 21:17 43.62808 1.37409 489 ft 4 kts 52°
2026-05-04 21:17 43.62801 1.37393 490 ft 1 kts 71°
2026-05-04 21:17 43.62801 1.37391 490 ft 0 kts 71°
2026-05-04 21:20 43.62805 1.37407 488 ft 7 kts 71°
2026-05-04 21:20 43.62819 1.37464 484 ft 6 kts 71°
2026-05-04 21:20 43.62824 1.37531 494 ft 11 kts 113°
2026-05-04 21:20 43.62772 1.37595 487 ft 13 kts 145°
2026-05-04 21:21 43.62696 1.37601 492 ft 13 kts 232°
2026-05-04 21:21 43.62646 1.37497 491 ft 13 kts 240°
2026-05-04 21:21 43.62592 1.37391 487 ft 14 kts 234°
2026-05-04 21:21 43.62509 1.37350 492 ft 15 kts 151°
2026-05-04 21:22 43.62430 1.37433 489 ft 13 kts 143°
2026-05-04 21:22 43.62366 1.37496 494 ft 11 kts 143°
2026-05-04 21:22 43.62302 1.37564 491 ft 14 kts 142°
2026-05-04 21:22 43.62205 1.37665 490 ft 19 kts 143°
2026-05-04 21:23 43.62150 1.37650 491 ft 8 kts 231°
2026-05-04 21:23 43.62130 1.37612 489 ft 0 kts 234°
2026-05-04 21:24 43.62130 1.37611 494 ft 2 kts 234°
2026-05-04 21:25 43.62099 1.37552 489 ft 11 kts 234°
2026-05-04 21:25 43.62108 1.37458 487 ft 11 kts 319°
2026-05-04 21:25 43.62111 1.37454 488 ft 0 kts 323°
2026-05-04 21:26 43.62186 1.37375 487 ft 48 kts 322°
2026-05-04 21:26 43.62642 1.36900 491 ft 117 kts 323°
2026-05-04 21:26 43.63430 1.36066 649 ft 158 kts 319°
2026-05-04 21:27 43.64294 1.35154 1494 ft 154 kts 318°
2026-05-04 21:27 43.65144 1.34211 2151 ft 166 kts 319°
2026-05-04 21:27 43.66097 1.33147 2572 ft 188 kts 320°
2026-05-04 21:27 43.67197 1.31941 2991 ft 214 kts 320°
2026-05-04 21:28 43.68433 1.30617 3608 ft 234 kts 322°
2026-05-04 21:28 43.69768 1.29195 4367 ft 248 kts 321°
2026-05-04 21:28 43.71139 1.27685 5300 ft 255 kts 322°
2026-05-04 21:28 43.72726 1.26544 6291 ft 262 kts 342°
2026-05-04 21:29 43.74516 1.25907 7217 ft 268 kts 343°
2026-05-04 21:29 43.76353 1.25299 8142 ft 274 kts 346°
2026-05-04 21:29 43.78282 1.25003 9023 ft 283 kts 357°
2026-05-04 21:29 43.80279 1.24953 9910 ft 290 kts 356°
2026-05-04 21:30 43.82348 1.24893 10431 ft 309 kts 356°
2026-05-04 21:30 43.84580 1.24819 10774 ft 332 kts 356°
2026-05-04 21:30 43.86941 1.24740 11394 ft 343 kts 356°
2026-05-04 21:30 43.89352 1.24662 12181 ft 350 kts 356°
2026-05-04 21:31 43.94303 1.24496 13727 ft 362 kts 352°
2026-05-04 21:31 43.96829 1.24300 14429 ft 364 kts 349°
2026-05-04 21:31 43.99371 1.23954 15056 ft 370 kts 348°
2026-05-04 21:32 44.01986 1.23683 15472 ft 383 kts 352°
2026-05-04 21:32 44.04661 1.23613 16198 ft 385 kts 355°
2026-05-04 21:32 44.07349 1.23703 16943 ft 386 kts 358°
2026-05-04 21:32 44.10030 1.23953 17733 ft 387 kts
2026-05-04 21:33 44.12707 1.24363 18504 ft 386 kts